User: anonymous   Login
Location: Scultetus-Sternwarte G�rlitz
(51.1356°N, 14.9514°E)
Time: 19:20:26
(UTC+01:00)
Language:

Iridium 3 - Orbit

View from above orbital plane
View from above orbital plane
View from above satellite
View from above satellite

Ground track
Ground track

The orbit data is extracted from the following two-line orbital elements,

1 25431U 98048A   16338.50590572 -.00000049  00000-0 -24646-4 0  9999
2 25431  86.3942 337.5225 0001917  84.7355  25.3916 14.34216744957560
Epoch (UTC): 03 December 2016 12:08:30
Eccentricity: 0.0001917
inclination: 86.3942°
perigee height: 776 km
apogee height: 779 km
right ascension of ascending node: 337.5225°
argument of perigee: 84.7355°
revolutions per day: 14.34216744
mean anomaly at epoch: 25.3916°
orbit number at epoch: 95756

The dashed part of the orbit path shows where the satellite is in the earth's shadow,  

DLR